METAR Formatted Surface Weather Observation
Issued by NWS

Home | Current Version | Previous Version | Text Only | Print | Product List | Glossary On
Versions: 1 2 3 4 5 6 7 8 9 10 11 12 13 14 15 16 17 18 19 20 21 22 23 24 25 26 27 28 29 30
000
SAUS45 KSLC 180232
MTRU16
METAR KU16 180158Z AUTO 14006KT 10SM CLR 33/06 A2988 RMK
 AO2 SLP746 T03280056 $



USA.gov is the U.S. government's official web portal to all federal, state and local government web resources and services.